Find Starlink 35582

NORAD ID: 66537 Int'l Des: 2025-265 Owner: SPXS Country: US Constellation: starlink operational
LEOCIRCULAR

实时位置

正在加载3D地球...

关于 Starlink 35582

正在加载描述...

即将过境

Passes for default location (London). Set your location on the main map for personalized predictions.

高度历史

Loading altitude history...

两行轨道根数

1 66537U 25265X 26104.91697720 .00012670 00000-0 46901-3 0 9990
2 66537 43.0006 73.3603 0001209 251.2715 108.8006 15.27588306 22652
Epoch: Apr 14, 2026 • Age: 7 hours

当前状态

高度 483.2 km
速度 7.63 km/s
星下点 25.03°N, 55.03°W
发射日期 Nov 19, 2025
运行时间 0.4 years
类型 internet

技术详情

分类 Payload
质量 575.00 kg
干质量 530.00 kg
总质量 575.00 kg
长度 0.30 m
直径 4.10 m
跨度 29.00 m
形状 Box + pan
制造商 SPXS
平台类型 Starlink V2MO
阶段状态 In Orbit
所有者/国家 SPXS/US

Most Searched